HBCDY LIPZ-LSZH

Flight info

Callsign HBCDY
Flight time 0h 46m
Altitude 32000
Route LIPZ/04R N0456F320 ROKI6L ROKIB DCT DIKEM DCT RESIA DCT SOPER Z50 KELIP KELI3G LSZH/14
Aircraft B737/M-ICAO/C

Departure

Time 2026-05-07 09:23
Airport Venice Marco Polo Airport (LIPZ)

Arrival

Time 2026-05-07 10:10
Airport Zürich Airport (LSZH)
Time Latitude Longitude Altitude Speed Heading
2026-05-07 09:12 45.50094 12.33983 16 ft 0 kts 311°
2026-05-07 09:17 45.50092 12.33986 16 ft 0 kts 311°
2026-05-07 09:17 45.50083 12.34001 16 ft 0 kts 311°
2026-05-07 09:17 45.50074 12.34016 16 ft 0 kts 311°
2026-05-07 09:18 45.50065 12.34031 16 ft 0 kts 298°
2026-05-07 09:18 45.50065 12.34050 16 ft 0 kts 239°
2026-05-07 09:18 45.50070 12.34057 16 ft 0 kts 221°
2026-05-07 09:19 45.50065 12.34051 16 ft 6 kts 221°
2026-05-07 09:19 45.49999 12.33968 16 ft 19 kts 221°
2026-05-07 09:20 45.49893 12.33850 16 ft 17 kts 200°
2026-05-07 09:20 45.49788 12.33816 16 ft 15 kts 197°
2026-05-07 09:20 45.49675 12.33766 16 ft 23 kts 213°
2026-05-07 09:20 45.49549 12.33608 16 ft 22 kts 202°
2026-05-07 09:21 45.49496 12.33628 16 ft 0 kts 134°
2026-05-07 09:21 45.49496 12.33629 16 ft 0 kts 134°
2026-05-07 09:22 45.49493 12.33632 16 ft 5 kts 134°
2026-05-07 09:22 45.49454 12.33771 16 ft 21 kts 91°
2026-05-07 09:22 45.49480 12.33857 16 ft 0 kts 49°
2026-05-07 09:22 45.49491 12.33875 16 ft 11 kts 49°
2026-05-07 09:23 45.49689 12.34142 16 ft 78 kts 42°
2026-05-07 09:23 45.50289 12.34916 16 ft 151 kts 43°
2026-05-07 09:23 45.51174 12.36062 427 ft 175 kts 44°
2026-05-07 09:23 45.52027 12.37208 1484 ft 171 kts 45°
2026-05-07 09:24 45.52901 12.38469 2216 ft 186 kts 49°
2026-05-07 09:24 45.53411 12.40210 2854 ft 201 kts 88°
2026-05-07 09:24 45.53355 12.42208 3696 ft 207 kts 95°
2026-05-07 09:24 45.53215 12.44283 4577 ft 213 kts 97°
2026-05-07 09:25 45.53043 12.46402 5505 ft 216 kts 98°
2026-05-07 09:25 45.52849 12.48536 6424 ft 218 kts 98°
2026-05-07 09:25 45.52525 12.50693 7128 ft 231 kts 115°
2026-05-07 09:25 45.51442 12.52431 7703 ft 243 kts 154°
2026-05-07 09:26 45.49802 12.52836 8508 ft 244 kts 191°
2026-05-07 09:26 45.48167 12.52171 9390 ft 248 kts 201°
2026-05-07 09:26 45.46659 12.50841 9911 ft 266 kts 226°
2026-05-07 09:26 45.45706 12.48572 10432 ft 283 kts 255°
2026-05-07 09:27 45.45961 12.45713 10730 ft 308 kts 295°
2026-05-07 09:27 45.46995 12.42985 11460 ft 317 kts 291°
2026-05-07 09:27 45.46535 12.37020 13101 ft 316 kts 237°
2026-05-07 09:28 45.45363 12.34372 13975 ft 318 kts 245°
2026-05-07 09:28 45.44879 12.31302 14844 ft 321 kts 263°
2026-05-07 09:28 45.44746 12.28146 15625 ft 325 kts 265°
2026-05-07 09:28 45.44658 12.24874 16411 ft 328 kts 265°
2026-05-07 09:29 45.44567 12.21653 17173 ft 331 kts 265°
2026-05-07 09:29 45.44463 12.18363 17922 ft 335 kts 265°
2026-05-07 09:29 45.44650 12.15050 18711 ft 340 kts 279°
2026-05-07 09:29 45.45491 12.11877 19483 ft 348 kts 295°
2026-05-07 09:30 45.46970 12.09105 20211 ft 359 kts 311°
2026-05-07 09:30 45.48964 12.06891 20847 ft 368 kts 319°
2026-05-07 09:30 45.51067 12.04737 21401 ft 375 kts 319°
2026-05-07 09:30 45.53181 12.02607 22001 ft 380 kts 319°
2026-05-07 09:31 45.55358 12.00438 22614 ft 383 kts 319°
2026-05-07 09:31 45.57561 11.98269 23228 ft 387 kts 320°
2026-05-07 09:31 45.59805 11.96095 23811 ft 391 kts 320°
2026-05-07 09:31 45.62064 11.93908 24373 ft 395 kts 320°
2026-05-07 09:32 45.64342 11.91693 24914 ft 399 kts 319°
2026-05-07 09:32 45.66647 11.89454 25433 ft 403 kts 319°
2026-05-07 09:32 45.68978 11.87185 25938 ft 407 kts 319°
2026-05-07 09:32 45.71295 11.84927 26411 ft 411 kts 319°
2026-05-07 09:33 45.73799 11.82897 27016 ft 417 kts 326°
2026-05-07 09:33 45.76433 11.81046 27393 ft 425 kts 327°
2026-05-07 09:33 45.79109 11.79212 27799 ft 430 kts 327°
2026-05-07 09:33 45.81817 11.77347 28217 ft 434 kts 327°
2026-05-07 09:34 45.84548 11.75452 28640 ft 437 kts 327°
2026-05-07 09:34 45.87295 11.73550 29048 ft 441 kts 327°
2026-05-07 09:34 45.90040 11.71572 29376 ft 442 kts 322°
2026-05-07 09:34 45.92486 11.69027 29546 ft 437 kts 309°
2026-05-07 09:35 45.94466 11.65794 29807 ft 427 kts 294°
2026-05-07 09:35 45.95812 11.62058 30270 ft 417 kts 289°
2026-05-07 09:35 45.97170 11.58396 30895 ft 416 kts 290°
2026-05-07 09:35 45.98560 11.54724 31254 ft 418 kts 290°
2026-05-07 09:36 45.99936 11.51029 31619 ft 420 kts 290°
2026-05-07 09:36 46.01305 11.47310 31931 ft 422 kts 290°
2026-05-07 09:36 46.02673 11.43550 32018 ft 427 kts 290°
2026-05-07 09:37 46.05329 11.35922 32028 ft 429 kts 289°
2026-05-07 09:37 46.07879 11.28145 32025 ft 429 kts 289°
2026-05-07 09:38 46.10428 11.20424 32022 ft 426 kts 289°
2026-05-07 09:38 46.12961 11.12725 32023 ft 425 kts 289°
2026-05-07 09:39 46.15469 11.05084 32027 ft 424 kts 289°
2026-05-07 09:39 46.17984 10.97393 32025 ft 424 kts 290°
2026-05-07 09:40 46.20496 10.89689 32023 ft 424 kts 290°
2026-05-07 09:40 46.23001 10.81985 32021 ft 424 kts 290°
2026-05-07 09:41 46.25503 10.74266 32018 ft 424 kts 290°
2026-05-07 09:41 46.27981 10.66597 32015 ft 424 kts 290°
2026-05-07 09:42 46.30466 10.58886 32013 ft 423 kts 290°
2026-05-07 09:42 46.32945 10.51171 32012 ft 423 kts 290°
2026-05-07 09:43 46.35416 10.43457 32017 ft 423 kts 290°
2026-05-07 09:43 46.37868 10.35777 32017 ft 423 kts 290°
2026-05-07 09:44 46.40327 10.28055 32017 ft 422 kts 290°
2026-05-07 09:44 46.42782 10.20322 32018 ft 422 kts 290°
2026-05-07 09:45 46.45233 10.12578 32020 ft 422 kts 290°
2026-05-07 09:45 46.47660 10.04884 32022 ft 422 kts 290°
2026-05-07 09:46 46.50459 9.97342 32025 ft 425 kts 295°
2026-05-07 09:46 46.53351 9.89858 32025 ft 425 kts 295°
2026-05-07 09:47 46.56196 9.82343 32026 ft 425 kts 295°
2026-05-07 09:47 46.59022 9.74869 32026 ft 425 kts 295°
2026-05-07 09:48 46.61860 9.67342 32025 ft 425 kts 295°
2026-05-07 09:48 46.64696 9.59801 32025 ft 425 kts 295°
2026-05-07 09:49 46.67514 9.52289 32004 ft 416 kts 295°
2026-05-07 09:49 46.68901 9.48581 31259 ft 419 kts 295°
2026-05-07 09:49 46.70281 9.44891 30493 ft 422 kts 296°
2026-05-07 09:49 46.71679 9.41144 29899 ft 420 kts 296°
2026-05-07 09:50 46.73079 9.37387 29375 ft 425 kts 296°
2026-05-07 09:50 46.74492 9.33590 28861 ft 424 kts 296°
2026-05-07 09:50 46.75888 9.29834 28356 ft 420 kts 296°
2026-05-07 09:50 46.77276 9.26095 27856 ft 418 kts 297°
2026-05-07 09:51 46.78654 9.22375 27358 ft 415 kts 297°
2026-05-07 09:51 46.80018 9.18691 26866 ft 411 kts 297°
2026-05-07 09:51 46.81358 9.15066 26382 ft 410 kts 297°
2026-05-07 09:51 46.82702 9.11425 25898 ft 406 kts 297°
2026-05-07 09:52 46.84032 9.07815 25415 ft 402 kts 297°
2026-05-07 09:52 46.85351 9.04232 24937 ft 399 kts 297°
2026-05-07 09:52 46.86666 9.00655 24462 ft 398 kts 297°
2026-05-07 09:52 46.87970 8.97103 23989 ft 394 kts 297°
2026-05-07 09:53 46.89259 8.93588 23523 ft 391 kts 297°
2026-05-07 09:53 46.90535 8.90102 23059 ft 388 kts 297°
2026-05-07 09:53 46.91806 8.86624 22596 ft 387 kts 297°
2026-05-07 09:53 46.93115 8.83195 22021 ft 387 kts 303°
2026-05-07 09:54 46.94814 8.80220 21520 ft 386 kts 316°
2026-05-07 09:54 46.96971 8.77897 21078 ft 385 kts 329°
2026-05-07 09:54 46.99410 8.76312 20628 ft 385 kts 340°
2026-05-07 09:54 47.02018 8.75457 20170 ft 383 kts 349°
2026-05-07 09:55 47.04652 8.74913 19668 ft 381 kts 351°
2026-05-07 09:55 47.07272 8.74405 19204 ft 378 kts 349°
2026-05-07 09:55 47.09847 8.73724 18754 ft 374 kts 347°
2026-05-07 09:55 47.12388 8.73005 18304 ft 371 kts 347°
2026-05-07 09:56 47.14921 8.72295 17860 ft 369 kts 348°
2026-05-07 09:56 47.17400 8.71619 17426 ft 366 kts 348°
2026-05-07 09:56 47.19899 8.70965 16990 ft 365 kts 348°
2026-05-07 09:56 47.22394 8.70307 16552 ft 363 kts 348°
2026-05-07 09:57 47.24855 8.69519 16061 ft 359 kts 341°
2026-05-07 09:57 47.27099 8.68003 15675 ft 354 kts 326°
2026-05-07 09:57 47.28880 8.65549 15279 ft 352 kts 309°
2026-05-07 09:57 47.30515 8.62862 14830 ft 353 kts 312°
2026-05-07 09:58 47.32197 8.60229 14401 ft 352 kts 312°
2026-05-07 09:58 47.33868 8.57604 13973 ft 350 kts 312°
2026-05-07 09:58 47.35492 8.55027 13564 ft 344 kts 311°
2026-05-07 09:58 47.37120 8.52412 13146 ft 340 kts 311°
2026-05-07 09:59 47.38680 8.49860 12745 ft 338 kts 310°
2026-05-07 09:59 47.40245 8.47288 12342 ft 336 kts 310°
2026-05-07 09:59 47.41805 8.44733 11943 ft 334 kts 310°
2026-05-07 09:59 47.43353 8.42190 11543 ft 332 kts 310°
2026-05-07 10:00 47.44901 8.39648 11146 ft 332 kts 310°
2026-05-07 10:00 47.46439 8.37119 10753 ft 330 kts 311°
2026-05-07 10:00 47.47950 8.34630 10626 ft 322 kts 311°
2026-05-07 10:00 47.49411 8.32222 10494 ft 306 kts 311°
2026-05-07 10:01 47.50800 8.29944 10365 ft 291 kts 313°
2026-05-07 10:01 47.52204 8.27940 10249 ft 278 kts 316°
2026-05-07 10:01 47.53631 8.26015 10123 ft 272 kts 316°
2026-05-07 10:01 47.55002 8.24164 9958 ft 270 kts 316°
2026-05-07 10:02 47.56375 8.22275 9617 ft 267 kts 316°
2026-05-07 10:02 47.57726 8.20404 9292 ft 265 kts 316°
2026-05-07 10:02 47.59073 8.18551 8973 ft 264 kts 316°
2026-05-07 10:02 47.60583 8.17026 8535 ft 265 kts 339°
2026-05-07 10:03 47.62389 8.16890 8163 ft 263 kts 14°
2026-05-07 10:03 47.63961 8.18249 7854 ft 268 kts 42°
2026-05-07 10:03 47.65281 8.20159 7487 ft 267 kts 43°
2026-05-07 10:03 47.66488 8.22306 6908 ft 273 kts 62°
2026-05-07 10:04 47.66885 8.24964 6610 ft 269 kts 93°
2026-05-07 10:04 47.66373 8.27587 6342 ft 267 kts 119°
2026-05-07 10:04 47.65301 8.29799 5995 ft 262 kts 132°
2026-05-07 10:04 47.64045 8.31730 5624 ft 259 kts 136°
2026-05-07 10:05 47.62790 8.33621 5274 ft 255 kts 135°
2026-05-07 10:05 47.61522 8.35418 4936 ft 250 kts 138°
2026-05-07 10:05 47.60259 8.37119 4626 ft 241 kts 138°
2026-05-07 10:05 47.59051 8.38763 4303 ft 231 kts 137°
2026-05-07 10:06 47.57922 8.40316 4001 ft 215 kts 137°
2026-05-07 10:06 47.56882 8.41747 3736 ft 197 kts 138°
2026-05-07 10:06 47.55899 8.43093 3473 ft 186 kts 137°
2026-05-07 10:06 47.54995 8.44329 3240 ft 168 kts 138°
2026-05-07 10:07 47.54170 8.45459 3024 ft 157 kts 138°
2026-05-07 10:07 47.53388 8.46531 2819 ft 150 kts 136°
2026-05-07 10:07 47.52641 8.47550 2623 ft 143 kts 136°
2026-05-07 10:07 47.51911 8.48532 2417 ft 142 kts 137°
2026-05-07 10:08 47.51155 8.49543 2274 ft 150 kts 137°
2026-05-07 10:08 47.50389 8.50569 2090 ft 151 kts 137°
2026-05-07 10:08 47.49623 8.51646 1855 ft 152 kts 134°
2026-05-07 10:08 47.48867 8.52704 1665 ft 147 kts 137°
2026-05-07 10:09 47.48103 8.53728 1470 ft 150 kts 136°
2026-05-07 10:09 47.47409 8.54692 1425 ft 117 kts 136°
2026-05-07 10:09 47.46936 8.55338 1425 ft 70 kts 136°
2026-05-07 10:09 47.46625 8.55762 1425 ft 53 kts 135°
2026-05-07 10:10 47.46381 8.55955 1425 ft 29 kts 168°
2026-05-07 10:10 47.46337 8.55969 1425 ft 0 kts 168°
2026-05-07 10:10 47.46336 8.55969 1425 ft 0 kts 168°
2026-05-07 10:11 47.46246 8.55998 1425 ft 25 kts 169°
2026-05-07 10:12 47.46059 8.55985 1425 ft 25 kts 186°
2026-05-07 10:12 47.45905 8.55934 1425 ft 21 kts 203°
2026-05-07 10:12 47.45840 8.55898 1425 ft 0 kts 197°
2026-05-07 10:13 47.45787 8.55878 1425 ft 20 kts 192°
2026-05-07 10:13 47.45668 8.55855 1425 ft 27 kts 185°
2026-05-07 10:13 47.45513 8.55784 1425 ft 4 kts 271°
2026-05-07 10:13 47.45513 8.55744 1425 ft 11 kts 262°
2026-05-07 10:14 47.45475 8.55698 1425 ft 9 kts 191°
2026-05-07 10:14 47.45436 8.55690 1425 ft 1 kts 187°
2026-05-07 10:14 47.45435 8.55690 1425 ft 0 kts 187°